Вернуться в каталог

STARLINK-30929

АктивенСвязьVLEO
NORAD 58386·PAYLOAD·🇺🇸 United States

Запущен Nov 20, 2023 с Vandenberg Space Force Base

Loading…

Ближайшие Пролёты (ближайшие 24 часа)

TLE

СвежийSource: CelesTrak SupGP

Эпоха: Sep 15, 2026, 03:17 UTC

1 58386C 23178N   26258.13729167 -.00071844  00000+0 -21227-2 0  2589
2 58386  53.1592 197.1362 0001404  88.3556 134.6480 15.34425354    13

Отслеживайте STARLINK-30929 в реальном времени с AllMySat

Download on the App Store